This is the latest recevied weather packets stored in our database for station/object OH2NJR. If no packets are shown the sender has not sent any weather packets the latest 10 day(s).
| Time | Temp. | Humidity | Pressure | Rain* | Wind** | Luminosity | Snow |
|---|---|---|---|---|---|---|---|
| 1777815048 | 12.22° C | 66% | 1007.7 hPa | 0 mm | - | - | - |
| 1777813974 | 11.11° C | - | - | 0 mm | - | - | - |
| 1777813968 | 11.11° C | 69% | 1007.7 hPa | 0 mm | - | - | - |
| 1777813010 | 12.22° C | 63% | 1007.9 hPa | 0 mm | - | - | - |
| 1777811868 | 12.22° C | 61% | 1008.1 hPa | 0 mm | - | - | - |
| 1777810748 | 12.22° C | 66% | 1008 hPa | 0 mm | - | - | - |
| 1777809718 | 11.67° C | 66% | 1007.8 hPa | 0 mm | - | - | - |
| 1777808578 | 11.11° C | 67% | 1007.9 hPa | 0 mm | - | - | - |
| 1777807558 | 12.22° C | 65% | 1007.8 hPa | 0 mm | - | - | - |
| 1777806553 | 12.22° C | 64% | 1007.8 hPa | 0 mm | - | - | - |
| 1777805583 | 12.22° C | 66% | 1007.8 hPa | 0 mm | - | - | - |
| 1777804513 | 12.22° C | 66% | 1007.8 hPa | 0 mm | - | - | - |
| 1777803338 | 12.22° C | 65% | 1007.7 hPa | 0 mm | - | - | - |
| 1777802359 | 11.67° C | 67% | - | 0 mm | - | - | - |
| 1777802353 | 11.67° C | 67% | 1007.8 hPa | 0 mm | - | - | - |
| 1777801368 | 11.67° C | 68% | 1007.9 hPa | 0 mm | - | - | - |
| 1777800293 | 10.56° C | 69% | 1008.1 hPa | 0 mm | - | - | - |
| 1777799268 | 11.11° C | 69% | 1007.9 hPa | 0 mm | - | - | - |
| 1777798268 | 12.78° C | 60% | 1007.3 hPa | 0 mm | - | - | - |
| 1777797153 | 11.11° C | - | - | 0 mm | - | - | - |
| 1777797148 | 11.11° C | 66% | 1007.2 hPa | 0 mm | - | - | - |
| 1777796080 | 11.11° C | 68% | 1007.2 hPa | 0 mm | - | - | - |
| 1777794938 | 10.56° C | 74% | 1007.3 hPa | 0 mm | - | - | - |
| 1777793898 | 10° C | 71% | 1007.1 hPa | 0 mm | - | - | - |
| 1777792903 | 10° C | 69% | 1007.2 hPa | 0 mm | - | - | - |
* Rain latest hour (hover to see other rain measurements)
** Current wind speed in m/s (hover to see current wind gust speed)